[[{"header":{"parameterUnit":"m.s-1","parameterCategory":1,"la1":30.2991,"la2":30.254,"lo1":-89.0895,"lo2":-89.0444,"dy":0.0017,"dx":0.0017,"nx":28,"ny":28,"refTime":"2025-12-10T03:00:00:Z","depth":0,"parameterNumber":2,"parameterNumberName":"U-component_of_WINDS"},"data":[0,0,0,0,0,0,0,0,0,0,0,0,0,0,0,0,0,0,0,0,0,0,0,0,0,0,0,0,0,0,0,0,0,0,0,0,0,0,0,0,0,0,0,0,0,0,0,0,0,0,0,0,0,0,0,0,0,0,3.1861,3.1863,0,3.2001,3.2002,3.2004,3.1992,3.199,3.1988,3.1986,3.2131,3.2137,3.2142,0,0,0,0,0,0,0,0,0,0,0,0,0,3.1588,3.1593,3.1861,3.1863,3.1865,3.2,3.2002,3.2004,3.1993,3.199,3.1987,3.1985,3.2129,3.2136,3.2143,0,0,0,0,0,0,0,0,0,0,0,0,0,3.1715,3.1594,3.1861,3.1875,3.1878,3.2,3.2002,3.2005,3.1993,3.199,3.1987,3.1984,3.2127,3.2135,3.2144,3.2262,0,0,3.2171,3.2174,0,0,0,0,0,0,0,0,3.1707,3.1725,3.1871,3.1874,3.1878,3.1976,3.1959,3.2091,3.1994,3.1949,3.1986,3.1982,3.2082,3.2094,3.2127,3.2268,3.2275,3.2171,3.2177,3.218,3.2183,0,0,0,0,0,0,0,3.1699,3.1719,3.1916,3.1873,3.1877,3.1876,3.189,3.1984,3.2032,3.1953,3.1953,3.1969,3.2083,3.2119,3.2131,3.2277,3.2171,3.2179,3.2184,3.2188,3.2522,3.2526,0,0,0,0,0,0,3.1686,3.1711,3.1912,3.1921,3.1783,3.1883,3.1899,3.1948,3.2031,3.204,3.1972,3.1968,3.2106,3.2121,3.2136,3.2279,3.218,3.2189,3.2194,3.2519,3.2523,3.2527,0,0,0,0,0,0,3.168,3.1704,3.1906,3.1816,3.1842,3.1891,3.1945,3.1952,3.1988,3.2045,3.2054,3.1999,3.2104,3.2124,3.223,3.2284,3.2193,3.2201,3.2514,3.252,3.2525,3.2566,0,0,0,0,0,0,3.1673,3.1702,3.1746,3.1817,3.1846,3.1998,3.1949,3.1957,3.2003,3.1999,3.2073,3.2082,3.2103,3.2217,3.2239,3.2294,3.2207,3.251,3.2517,3.2523,3.256,3.2572,3.2583,0,0,0,0,0,3.1663,3.1753,3.1749,3.1773,3.1903,3.2001,3.2018,3.2039,3.2007,3.2052,3.209,3.208,3.2275,3.2228,3.2253,3.2311,3.2506,3.2515,3.2523,3.2555,3.257,3.2582,0,0,0,0,0,0,3.1687,3.1762,3.1759,3.1874,3.1931,3.1999,3.2056,3.2054,3.2121,3.2115,3.2139,3.2156,3.2264,3.2299,3.2246,3.243,3.2387,3.24,3.2403,3.2417,3.2428,3.2417,3.2215,0,0,0,0,0,3.1706,3.1779,3.1841,3.1937,3.1966,3.2006,3.205,3.2061,3.2121,3.2146,3.219,3.225,3.2325,3.2373,3.2445,3.2566,3.2582,3.2619,3.263,3.2639,3.2649,3.2716,3.2733,3.2554,3.2554,3.2554,0,0,3.1746,3.1796,3.184,3.1943,3.1988,3.2064,3.2026,3.2108,3.2164,3.2158,3.2261,3.2297,3.2365,3.2479,3.2532,3.2512,3.2703,3.2649,3.2656,3.2662,3.2726,3.2743,3.2758,3.2559,3.2558,3.2557,0,0,3.1856,3.1901,3.1986,3.2033,3.2102,3.2129,3.215,3.2218,3.2241,3.2345,3.2343,3.2411,3.2539,3.2588,3.2629,3.2761,3.2754,3.2784,3.2842,3.2906,3.2921,3.2933,3.2979,3.2996,3.2795,3.2795,3.2795,0,3.1896,3.2009,3.203,3.2112,3.2157,3.2156,3.2243,3.2287,3.2377,3.2409,3.2385,3.2547,3.2593,3.2718,3.275,3.2784,3.2809,3.2774,3.2917,3.293,3.2942,3.2986,3.3003,3.2798,3.2798,3.2797,3.2797,0,3.2055,3.2133,3.2194,3.228,3.2332,3.2416,3.2451,3.2502,3.251,3.254,3.2646,3.2702,3.2785,3.2816,3.2825,3.2944,3.2929,3.2911,3.2867,3.2961,3.3003,3.302,3.2802,3.2801,3.28,3.2799,0,0,3.2182,3.228,3.2302,3.2341,3.2419,3.248,3.2565,3.2646,3.2689,3.2752,3.2824,3.2933,3.2917,3.2964,3.2979,3.3036,3.3136,3.3011,3.3013,3.3031,3.327,3.3282,3.3301,3.3133,3.3137,3.3139,3.3264,0,3.2299,3.2447,3.247,3.2601,3.2674,3.2675,3.2749,3.2805,3.2836,3.2903,3.2938,3.3014,3.2988,3.3016,3.3073,3.3111,3.3184,3.3103,3.32,3.3203,3.3181,3.3323,3.3336,3.3451,3.3281,3.3284,3.3286,0,3.2454,3.2521,3.2659,3.2727,3.2759,3.2825,3.2901,3.2966,3.303,3.3049,3.3102,3.311,3.3199,3.3154,3.3277,3.3221,3.3263,3.3288,3.3293,3.3301,3.3248,3.3334,3.3488,3.3504,3.3312,3.331,3.3308,0,3.2531,3.2656,3.2755,3.2789,3.2872,3.2918,3.2955,3.3016,3.3064,3.3132,3.3163,3.324,3.3282,3.3343,3.3372,3.3336,3.3493,3.345,3.3511,3.351,3.3542,3.3539,3.3703,3.3572,3.3572,3.3571,3.3571,0,3.2658,3.2743,3.2791,3.2851,3.2946,3.2973,3.3066,3.3102,3.3157,3.3225,3.3232,3.3296,3.3332,3.3402,3.3425,3.3524,3.3543,3.3561,3.3566,3.3559,3.3556,3.3585,3.3577,3.3576,3.3575,3.3574,3.3573,0,3.2759,3.2795,3.2903,3.2973,3.2993,3.3059,3.312,3.3179,3.3211,3.3297,3.3319,3.3368,3.3451,3.3487,3.3589,3.3605,3.3717,3.3717,3.3694,3.3696,3.3754,3.3747,3.394,3.3967,3.382,3.3821,3.3822,0,3.2837,3.2902,3.2979,3.3025,3.3063,3.3137,3.3186,3.3216,3.3266,3.3346,3.3396,3.3479,3.3546,3.3678,3.3724,3.3802,3.3803,3.3866,3.3815,3.3806,3.3802,3.3797,3.3804,3.3874,3.3875,3.3877,3.3877,0,3.297,3.2985,3.3055,3.3131,3.3189,3.3251,3.3311,3.3349,3.3388,3.3445,3.3529,3.3582,3.3686,3.3768,3.385,3.3889,3.389,3.3894,3.3912,3.3904,3.3888,3.3896,3.3718,3.3888,3.3887,3.3886,3.3886,3.3885,3.3061,3.3119,3.3182,3.326,3.3309,3.3366,3.3425,3.3464,3.3535,3.3621,3.3635,3.3725,3.379,3.3899,3.3942,3.4013,3.3998,3.4024,3.4031,3.4036,3.4039,3.3878,3.4029,3.4028,3.4028,3.4028,3.4028,0,3.3194,3.3235,3.3306,3.3391,3.3452,3.3449,3.3516,3.3567,3.3646,3.3706,3.3773,3.387,3.3951,3.4003,3.4084,3.4132,3.4134,3.4152,3.4148,3.4157,3.4049,3.4024,3.4148,3.4148,3.4148,3.4148,3.4148,3.4148,3.327,3.3367,3.339,3.3512,3.3553,3.3641,3.3679,3.3732,3.378,3.3888,3.3955,3.3989,3.4046,3.4132,3.4206,3.4219,3.4248,3.4267,3.4279,3.4177,3.4164,3.4152,3.4129,3.4273,3.4273,3.4381,3.4382,3.4383]},{"header":{"parameterUnit":"m.s-1","parameterCategory":1,"la1":30.2991,"la2":30.254,"lo1":-89.0895,"lo2":-89.0444,"dy":0.0017,"dx":0.0017,"nx":28,"ny":28,"refTime":"2025-12-10T03:00:00:Z","depth":0,"parameterNumber":3,"parameterNumberName":"V-component_of_WINDS"},"data":[0,0,0,0,0,0,0,0,0,0,0,0,0,0,0,0,0,0,0,0,0,0,0,0,0,0,0,0,0,0,0,0,0,0,0,0,0,0,0,0,0,0,0,0,0,0,0,0,0,0,0,0,0,0,0,0,0,0,-0.24,-0.2399,0,-0.2375,-0.2375,-0.2375,-0.2378,-0.2379,-0.2379,-0.238,-0.2354,-0.2353,-0.2352,0,0,0,0,0,0,0,0,0,0,0,0,0,-0.245,-0.2449,-0.24,-0.2399,-0.2399,-0.2375,-0.2375,-0.2375,-0.2378,-0.2379,-0.2379,-0.238,-0.2354,-0.2353,-0.2352,0,0,0,0,0,0,0,0,0,0,0,0,0,-0.2427,-0.2449,-0.24,-0.2398,-0.2398,-0.2375,-0.2375,-0.2374,-0.2378,-0.2379,-0.2379,-0.238,-0.2355,-0.2353,-0.2352,-0.2329,0,0,-0.2347,-0.2346,0,0,0,0,0,0,0,0,-0.2429,-0.2425,-0.2399,-0.2398,-0.2398,-0.2381,-0.2383,-0.2359,-0.2378,-0.2386,-0.238,-0.238,-0.2362,-0.236,-0.2354,-0.2328,-0.2327,-0.2346,-0.2345,-0.2345,-0.2344,0,0,0,0,0,0,0,-0.243,-0.2427,-0.239,-0.2398,-0.2398,-0.2399,-0.2396,-0.2379,-0.2371,-0.2385,-0.2385,-0.2382,-0.2362,-0.2356,-0.2353,-0.2326,-0.2346,-0.2345,-0.2344,-0.2343,-0.2281,-0.228,0,0,0,0,0,0,-0.2432,-0.2428,-0.2391,-0.2389,-0.2415,-0.2397,-0.2394,-0.2385,-0.2371,-0.2369,-0.2382,-0.2383,-0.2358,-0.2355,-0.2353,-0.2325,-0.2345,-0.2343,-0.2342,-0.2282,-0.2281,-0.228,0,0,0,0,0,0,-0.2433,-0.2429,-0.2392,-0.2409,-0.2404,-0.2396,-0.2386,-0.2385,-0.2378,-0.2368,-0.2367,-0.2377,-0.2358,-0.2355,-0.2335,-0.2324,-0.2343,-0.2341,-0.2282,-0.2281,-0.228,-0.227,0,0,0,0,0,0,-0.2435,-0.2429,-0.242,-0.2408,-0.2403,-0.2374,-0.2385,-0.2384,-0.2375,-0.2376,-0.2363,-0.2362,-0.2359,-0.2337,-0.2333,-0.2322,-0.234,-0.2283,-0.2282,-0.2281,-0.2271,-0.2269,-0.2267,0,0,0,0,0,-0.2437,-0.2418,-0.242,-0.2415,-0.2392,-0.2374,-0.2371,-0.2368,-0.2374,-0.2365,-0.236,-0.2362,-0.2327,-0.2335,-0.2331,-0.2319,-0.2284,-0.2282,-0.2281,-0.2272,-0.2269,-0.2267,0,0,0,0,0,0,-0.2429,-0.2417,-0.2418,-0.2395,-0.2386,-0.2374,-0.2363,-0.2365,-0.2352,-0.2354,-0.2351,-0.2348,-0.2327,-0.2322,-0.2332,-0.2297,-0.2306,-0.2304,-0.2301,-0.2298,-0.2296,-0.2297,-0.2338,0,0,0,0,0,-0.2424,-0.2411,-0.2401,-0.2382,-0.2377,-0.2371,-0.2363,-0.2362,-0.2351,-0.2347,-0.2339,-0.2329,-0.2316,-0.2307,-0.2294,-0.2271,-0.2268,-0.2261,-0.2259,-0.2257,-0.2254,-0.2242,-0.2239,-0.2275,-0.2275,-0.2275,0,0,-0.2415,-0.2407,-0.2398,-0.238,-0.2372,-0.2358,-0.2367,-0.2352,-0.2341,-0.2345,-0.2325,-0.232,-0.2308,-0.2287,-0.2277,-0.2281,-0.2244,-0.2255,-0.2254,-0.2252,-0.224,-0.2237,-0.2234,-0.2274,-0.2274,-0.2274,0,0,-0.239,-0.2383,-0.2366,-0.2359,-0.2347,-0.2343,-0.234,-0.2328,-0.2325,-0.2306,-0.2308,-0.2296,-0.2273,-0.2265,-0.2258,-0.2232,-0.2234,-0.2228,-0.2215,-0.2204,-0.2201,-0.2198,-0.2189,-0.2185,-0.2226,-0.2226,-0.2226,0,-0.238,-0.2359,-0.2357,-0.2342,-0.2334,-0.2337,-0.232,-0.2313,-0.2298,-0.2292,-0.2298,-0.2269,-0.2262,-0.2239,-0.2233,-0.2227,-0.2222,-0.2229,-0.2201,-0.2199,-0.2196,-0.2187,-0.2184,-0.2225,-0.2225,-0.2225,-0.2225,0,-0.2347,-0.2332,-0.232,-0.2306,-0.2297,-0.2281,-0.2277,-0.2268,-0.2268,-0.2264,-0.2245,-0.2237,-0.2222,-0.2217,-0.2217,-0.2194,-0.2197,-0.2202,-0.2211,-0.2192,-0.2184,-0.218,-0.2224,-0.2224,-0.2225,-0.2225,0,0,-0.2315,-0.2301,-0.2296,-0.229,-0.2278,-0.2267,-0.2252,-0.2238,-0.2231,-0.2221,-0.2208,-0.2189,-0.2194,-0.2186,-0.2185,-0.2174,-0.2155,-0.2181,-0.218,-0.2175,-0.2129,-0.2125,-0.2121,-0.2157,-0.2156,-0.2155,-0.213,0,-0.2289,-0.2261,-0.226,-0.2235,-0.2222,-0.2226,-0.2212,-0.2204,-0.22,-0.2189,-0.2185,-0.2171,-0.2179,-0.2174,-0.2164,-0.2159,-0.2145,-0.2161,-0.2144,-0.2143,-0.2146,-0.2116,-0.2112,-0.2088,-0.2127,-0.2126,-0.2126,0,-0.2254,-0.2243,-0.2217,-0.2208,-0.2202,-0.219,-0.2178,-0.2167,-0.2158,-0.2156,-0.2148,-0.2149,-0.2134,-0.2145,-0.2124,-0.2135,-0.2128,-0.2125,-0.2124,-0.2121,-0.2132,-0.2112,-0.208,-0.2076,-0.212,-0.2121,-0.2121,0,-0.2232,-0.2212,-0.2193,-0.2188,-0.2177,-0.2169,-0.2164,-0.2156,-0.2148,-0.2138,-0.2133,-0.2121,-0.2114,-0.2105,-0.2103,-0.2111,-0.2082,-0.2092,-0.2079,-0.2079,-0.2072,-0.2072,-0.2037,-0.2069,-0.2069,-0.207,-0.207,0,-0.2203,-0.2186,-0.2184,-0.2172,-0.2154,-0.2154,-0.2136,-0.2132,-0.2125,-0.2113,-0.2116,-0.2105,-0.2104,-0.2092,-0.2091,-0.2074,-0.2071,-0.2069,-0.2068,-0.2068,-0.2068,-0.2062,-0.2063,-0.2069,-0.2069,-0.2069,-0.2069,0,-0.2175,-0.2172,-0.2153,-0.2145,-0.2142,-0.2129,-0.2123,-0.2112,-0.211,-0.2094,-0.2091,-0.2087,-0.2074,-0.2071,-0.2056,-0.2055,-0.2034,-0.2036,-0.2037,-0.2037,-0.2024,-0.2025,-0.1983,-0.1978,-0.2014,-0.2014,-0.2014,0,-0.2155,-0.2143,-0.2134,-0.2126,-0.2121,-0.2109,-0.2101,-0.2101,-0.2093,-0.2082,-0.2073,-0.206,-0.205,-0.2029,-0.2025,-0.2013,-0.2014,-0.2,-0.2012,-0.2012,-0.2013,-0.2013,-0.2012,-0.1998,-0.1997,-0.1997,-0.1997,0,-0.2121,-0.2121,-0.211,-0.2098,-0.2089,-0.208,-0.2072,-0.2065,-0.2064,-0.2055,-0.2042,-0.2034,-0.2019,-0.2006,-0.1995,-0.199,-0.1993,-0.1993,-0.199,-0.1988,-0.1989,-0.1988,-0.203,-0.1994,-0.1994,-0.1994,-0.1994,-0.1995,-0.2096,-0.2086,-0.2078,-0.2065,-0.2059,-0.2052,-0.2041,-0.2038,-0.2027,-0.2014,-0.2015,-0.2001,-0.1993,-0.1979,-0.1973,-0.1962,-0.1966,-0.1961,-0.196,-0.1958,-0.1957,-0.1992,-0.196,-0.196,-0.196,-0.196,-0.196,0,-0.2061,-0.2057,-0.2046,-0.2034,-0.2025,-0.2029,-0.2021,-0.2012,-0.1999,-0.1992,-0.1982,-0.1968,-0.1956,-0.1951,-0.194,-0.1932,-0.1933,-0.1929,-0.1929,-0.1928,-0.1954,-0.1958,-0.1928,-0.1928,-0.1928,-0.1928,-0.1928,-0.1928,-0.2042,-0.2024,-0.2023,-0.2003,-0.1999,-0.1984,-0.1979,-0.1972,-0.1967,-0.195,-0.194,-0.1938,-0.1932,-0.192,-0.191,-0.1909,-0.1904,-0.1899,-0.1898,-0.1923,-0.1926,-0.1929,-0.1932,-0.1898,-0.1898,-0.1873,-0.1873,-0.1873]}]]